Selawik, AK

7:10 AM AKST on November 23, 2017 (GMT -0900)
Selawik

Weather History for PASK - May, 2013

Change the Weather History Date:

Friday, May 17, 2013

  Actual Average Record
Temperature  
Mean Temperature 9 °F -  
Max Temperature 15 °F 40 °F 50 °F (2015)
Min Temperature 3 °F 26 °F 3 °F (2013)
Degree Days  
Heating Degree Days 56    
Moisture  
Dew Point 7 °F    
Average Humidity 82    
Maximum Humidity 100    
Minimum Humidity 68    
Precipitation  
Precipitation 0.00 in - - ()
Sea Level Pressure  
Sea Level Pressure 29.78 in    
Wind  
Wind Speed 7 mph (WSW)    
Max Wind Speed 14 mph    
Max Gust Speed 16 mph    
Visibility 10 miles    
Events      
Averages and records for this station are not official NWS values.
T = Trace of Precipitation, MM = Missing Value Source: NWS Daily Summary

Daily Weather History Graph

Daily Weather History Graph

Search for Another Location

Airport or City:

Trip Planner

Search our weather history database for the weather conditions in past years. The results will help you decide how hot, cold, wet, or windy it might be!

Date:

Astronomy

May. 17, 2013 Rise Set
Actual Time 4:41 AM AKDT 12:34 AM AKDT
Civil Twilight 3:08 AM AKDT Sun does not rise
Nautical Twilight Sun does not rise Sun does not rise
Astronomical Twilight Sun does not rise Sun does not rise
Moon 1:11 PM AKDT (5/17) 3:53 AM AKDT (5/17)
Length of Visible Light 24h 00m
Length of Day
19h 53m
Waxing Crescent, 46% of the Moon is Illuminated
May 17
Waxing Crescent
May 17
First Quarter
May 24
Full
May 31
Last Quarter
Jun 8
New

Hourly Weather History & Observations

Time (AKDT) Temp. Windchill Dew Point Humidity Pressure Visibility Wind Dir Wind Speed Gust Speed Precip Events Conditions
12:16 AM 10.4 °F -2.4 °F 6.8 °F 85% 29.64 in 10.0 mi SW 9.2 mph - N/A   Clear
12:36 AM 8.6 °F -3.7 °F 6.8 °F 92% 29.65 in 10.0 mi SW 8.1 mph - N/A   Clear
12:56 AM 8.6 °F -2.6 °F 6.8 °F 92% 29.66 in 10.0 mi SW 6.9 mph - N/A   Clear
1:16 AM 8.6 °F -1.3 °F 6.8 °F 92% 29.66 in 10.0 mi SW 5.8 mph - N/A   Mostly Cloudy
1:36 AM 6.8 °F -2.0 °F 1.4 °F 79% 29.66 in 10.0 mi SW 4.6 mph - N/A   Partly Cloudy
1:56 AM 6.8 °F -4.8 °F 5.0 °F 92% 29.67 in 10.0 mi WSW 6.9 mph - N/A   Mostly Cloudy
2:16 AM 6.8 °F -4.8 °F 3.2 °F 85% 29.67 in 10.0 mi WSW 6.9 mph - N/A   Scattered Clouds
2:36 AM 5.0 °F -5.6 °F 1.4 °F 85% 29.68 in 10.0 mi WSW 5.8 mph - N/A   Clear
2:56 AM 5.0 °F -5.6 °F 3.2 °F 92% 29.68 in 10.0 mi WSW 5.8 mph - N/A   Clear
3:16 AM 3.2 °F -6.2 °F 1.4 °F 92% 29.68 in 7.0 mi WSW 4.6 mph - N/A   Clear
3:36 AM 3.2 °F -7.8 °F 1.4 °F 92% 29.69 in 10.0 mi West 5.8 mph - N/A   Clear
4:16 AM 3.2 °F -6.2 °F 1.4 °F 92% 29.70 in 10.0 mi WSW 4.6 mph - N/A   Overcast
4:36 AM 3.2 °F -6.2 °F 3.2 °F 100% 29.70 in 10.0 mi SW 4.6 mph - N/A   Overcast
4:56 AM 5.0 °F -5.6 °F 3.2 °F 92% 29.70 in 10.0 mi SW 5.8 mph - N/A   Overcast
5:16 AM 6.8 °F -0.1 °F 3.2 °F 85% 29.71 in 10.0 mi WSW 3.5 mph - N/A   Overcast
5:36 AM 6.8 °F -2.0 °F 3.2 °F 85% 29.71 in 9.0 mi WSW 4.6 mph - N/A   Overcast
5:56 AM 6.8 °F -3.5 °F 3.2 °F 85% 29.71 in 8.0 mi WSW 5.8 mph - N/A   Overcast
6:16 AM 6.8 °F -0.1 °F 5.0 °F 92% 29.71 in 10.0 mi WSW 3.5 mph - N/A   Overcast
6:36 AM 8.6 °F 2.0 °F 6.8 °F 92% 29.71 in 10.0 mi SSW 3.5 mph - N/A   Overcast
6:56 AM 8.6 °F 0.1 °F 5.0 °F 85% 29.72 in 10.0 mi SW 4.6 mph - N/A   Overcast
7:16 AM 8.6 °F 0.1 °F 6.8 °F 92% 29.72 in 10.0 mi SW 4.6 mph - N/A   Overcast
7:36 AM 8.6 °F 0.1 °F 6.8 °F 92% 29.73 in 10.0 mi WSW 4.6 mph - N/A   Overcast
7:56 AM 8.6 °F 0.1 °F 6.8 °F 92% 29.73 in 10.0 mi SW 4.6 mph - N/A   Mostly Cloudy
8:16 AM 10.4 °F 2.2 °F 6.8 °F 85% 29.73 in 10.0 mi WSW 4.6 mph - N/A   Scattered Clouds
8:36 AM 10.4 °F 2.2 °F 8.6 °F 92% 29.74 in 10.0 mi SW 4.6 mph - N/A   Overcast
8:56 AM 10.4 °F 0.8 °F 6.8 °F 85% 29.75 in 10.0 mi WSW 5.8 mph - N/A   Overcast
9:16 AM 12.2 °F 1.7 °F 8.6 °F 85% 29.76 in 10.0 mi SW 6.9 mph - N/A   Overcast
9:36 AM 12.2 °F 2.9 °F 8.6 °F 85% 29.76 in 10.0 mi SW 5.8 mph - N/A   Overcast
9:56 AM 12.2 °F 2.9 °F 8.6 °F 85% 29.75 in 10.0 mi SW 5.8 mph - N/A   Overcast
10:16 AM 12.2 °F 2.9 °F 8.6 °F 85% 29.76 in 10.0 mi SW 5.8 mph - N/A   Overcast
10:36 AM 14.0 °F 3.9 °F 8.6 °F 79% 29.76 in 10.0 mi SSW 6.9 mph - N/A   Overcast
10:56 AM 14.0 °F 2.0 °F 10.4 °F 86% 29.77 in 10.0 mi SW 9.2 mph - N/A   Overcast
11:16 AM 14.0 °F 2.0 °F 10.4 °F 86% 29.78 in 10.0 mi WSW 9.2 mph - N/A   Overcast
11:36 AM 14.0 °F 1.2 °F 8.6 °F 79% 29.77 in 10.0 mi WSW 10.4 mph - N/A   Overcast
11:56 AM 14.0 °F 1.2 °F 8.6 °F 79% 29.78 in 6.0 mi WSW 10.4 mph - N/A   Overcast
12:16 PM 12.2 °F -1.0 °F 8.6 °F 85% 29.78 in 10.0 mi West 10.4 mph - N/A   Overcast
12:36 PM 12.2 °F -0.2 °F 8.6 °F 85% 29.78 in 10.0 mi West 9.2 mph - N/A   Overcast
12:56 PM 12.2 °F -1.8 °F 8.6 °F 85% 29.79 in 10.0 mi West 11.5 mph - N/A   Overcast
1:16 PM 12.2 °F -0.2 °F 8.6 °F 85% 29.79 in 10.0 mi West 9.2 mph - N/A   Mostly Cloudy
1:36 PM 14.0 °F 1.2 °F 8.6 °F 79% 29.80 in 10.0 mi WSW 10.4 mph - N/A   Scattered Clouds
1:56 PM 14.0 °F 2.0 °F 8.6 °F 79% 29.80 in 10.0 mi WSW 9.2 mph - N/A   Mostly Cloudy
2:16 PM 14.0 °F 1.2 °F 6.8 °F 73% 29.80 in 10.0 mi SW 10.4 mph - N/A   Overcast
2:36 PM 15.8 °F 2.7 °F 8.6 °F 73% 29.81 in 10.0 mi SW 11.5 mph - N/A   Mostly Cloudy
2:56 PM 15.8 °F 2.1 °F 8.6 °F 73% 29.81 in 10.0 mi WSW 12.7 mph - N/A   Overcast
3:16 PM 15.8 °F 2.1 °F 8.6 °F 73% 29.81 in 10.0 mi WSW 12.7 mph - N/A   Overcast
3:36 PM 15.8 °F 3.4 °F 10.4 °F 79% 29.82 in 10.0 mi WSW 10.4 mph - N/A   Overcast
3:56 PM 15.8 °F 2.7 °F 10.4 °F 79% 29.82 in 10.0 mi West 11.5 mph - N/A   Overcast
4:16 PM 15.8 °F 3.4 °F 10.4 °F 79% 29.82 in 10.0 mi West 10.4 mph - N/A   Mostly Cloudy
4:36 PM 15.8 °F 2.7 °F 10.4 °F 79% 29.82 in 10.0 mi WSW 11.5 mph 16.1 mph N/A   Mostly Cloudy
4:56 PM 15.8 °F 3.4 °F 8.6 °F 73% 29.83 in 10.0 mi West 10.4 mph - N/A   Overcast
5:16 PM 15.8 °F 1.4 °F 8.6 °F 73% 29.83 in 10.0 mi West 13.8 mph - N/A   Mostly Cloudy
5:36 PM 15.8 °F 2.7 °F 8.6 °F 73% 29.84 in 10.0 mi West 11.5 mph 16.1 mph N/A   Scattered Clouds
5:56 PM 15.8 °F 2.1 °F 8.6 °F 73% 29.84 in 10.0 mi West 12.7 mph - N/A   Clear
6:16 PM 15.8 °F 2.1 °F 8.6 °F 73% 29.84 in 10.0 mi WSW 12.7 mph - N/A   Partly Cloudy
6:36 PM 15.8 °F 2.1 °F 8.6 °F 73% 29.84 in 10.0 mi WSW 12.7 mph - N/A   Clear
6:56 PM 15.8 °F 2.7 °F 8.6 °F 73% 29.85 in 10.0 mi WSW 11.5 mph - N/A   Clear
7:16 PM 15.8 °F 3.4 °F 8.6 °F 73% 29.85 in 10.0 mi WSW 10.4 mph - N/A   Clear
7:36 PM 15.8 °F 3.4 °F 6.8 °F 68% 29.85 in 10.0 mi WSW 10.4 mph - N/A   Clear
7:56 PM 15.8 °F 3.4 °F 6.8 °F 68% 29.85 in 10.0 mi West 10.4 mph - N/A   Clear
8:16 PM 15.8 °F 4.2 °F 8.6 °F 73% 29.86 in 10.0 mi West 9.2 mph - N/A   Clear
8:36 PM 15.8 °F 5.1 °F 6.8 °F 68% 29.86 in 10.0 mi WSW 8.1 mph - N/A   Clear
8:56 PM 15.8 °F 5.1 °F 8.6 °F 73% 29.87 in 10.0 mi WSW 8.1 mph - N/A   Clear
9:16 PM 15.8 °F 6.1 °F 6.8 °F 68% 29.87 in 10.0 mi WSW 6.9 mph - N/A   Clear
9:36 PM 15.8 °F 6.1 °F 8.6 °F 73% 29.87 in 10.0 mi West 6.9 mph - N/A   Clear
9:56 PM 14.0 °F 3.9 °F 8.6 °F 79% 29.87 in 10.0 mi WSW 6.9 mph - N/A   Clear
10:16 PM 14.0 °F 5.1 °F 8.6 °F 79% 29.88 in 10.0 mi WSW 5.8 mph - N/A   Clear
10:36 PM 12.2 °F 2.9 °F 6.8 °F 79% 29.88 in 10.0 mi WSW 5.8 mph - N/A   Clear
10:56 PM 10.4 °F 2.2 °F 6.8 °F 85% 29.88 in 10.0 mi WSW 4.6 mph - N/A   Clear
11:16 PM 10.4 °F 0.8 °F 6.8 °F 85% 29.89 in 10.0 mi WSW 5.8 mph - N/A   Scattered Clouds
11:36 PM 10.4 °F 0.8 °F 6.8 °F 85% 29.90 in 10.0 mi West 5.8 mph - N/A   Overcast
11:56 PM 10.4 °F 0.8 °F 6.8 °F 85% 29.90 in 10.0 mi West 5.8 mph - N/A   Overcast